ARIANE 3 DEB, 27648

Orbit data source: Space-Track

ARIANE 3 DEB, 27648 is space debris in HEO originally from a launch on Sat, 04 Aug 1984 UTC launched from the French Guiana (FRGUI). Debris objects in space refer to the collection of defunct objects orbiting the Earth. Examples of debris include non-operational satellites, rocket bodies, and fragments generated from explosions, collisions, or faulty payload assembly.

Loading next visibility...
Identifier
27648, 1984-081F
Orbit
HEO
Country
Flag of FRFR
Related business
Manufacturer
Unknown
Mission
Spacecraft
Bus & Motor
Unknown
Mass
Unknown
Launch date (UTC)
1984-08-04 (42 years ago)
Launch vehicle
Unknown
Launch site
French Guiana (FRGUI)
Object type
Payload
Rocket body
Debris
Shape & HBR
Unknown shape, 1.9 m
Radar Cross Section
Medium (>0.1 m² and <1 m²)

Expand to show TLE details & history
Last TLE update: 2 weeks ago

TLE from 2 weeks ago
0 ARIANE 3 DEB
1 27648U 84081F   26158.20801459 -.00000029  00000-0  13584-1 0  9993
2 27648   5.7531  33.6387 7174473 208.9649  77.5843  2.10251691206268
Epoch: 2026-06-07T04:59Z
TLE epoch observation values (Epoch: 2026-06-07T04:59:32.460Z)
Latitude
-0°
Longitude
63.12822°
Altitude
27,124.356 km
Speed
2.882 km/s
True Right ascension
02h 14m 30s
True Declination
0° 00' 00"
Sunlit
Object was in daylight at epoch
Visualization orbit readout
Latitude
Unknown
Longitude
Unknown
Altitude
Unknown
Speed
Unknown
Apparent Right ascension
Unknown
Apparent Declination
Unknown
Sunlit
N/A
Visualization observer readout
Local Sidereal Time
00:50:24
Azimuth
Unknown
Elevation
Unknown
Doppler factor
Unknown
Orbital elements
Apogee altitude
37,834.185 km
Perigee altitude
895.63 km
Semi-major axis
25,743.044 km
Eccentricity
0.71745
Inclination
5.7531°
RAAN
33.6387°
Arg. of periapsis
208.9649°
True anomaly
150.95734°
Mean anomaly
77.5843°
Eccentric anomaly
114.87687°
Mean motion
0.52548 °/min
Orbital period
685.09 mins
BSTAR
0.013584
Loading maneuver chart data...
Computing Atmospheric mass density...
Loading historical data...
Loading historical data...
Loading historical data...
Loading historical data...
Loading historical data...
Loading historical data...
Loading historical data...

Documentation

Showing up to 5 results
|